�������r�C�����j�^�v���󋵏��
Date,Time,5�C6���@���p�r�C��,����,����(m/s)
2024/02/03,00:00,3.8,���k��,2.3
2024/02/03,00:10,3.8,���k��,3.2
2024/02/03,00:20,3.7,��,3.1
2024/02/03,00:30,3.7,��,2.3
2024/02/03,00:40,3.8,���k��,2.3
2024/02/03,00:50,3.7,���k��,2.9
2024/02/03,01:00,3.7,���k��,2.6
2024/02/03,01:10,3.7,��,2.6
2024/02/03,01:20,3.9,��,2.8
2024/02/03,01:30,3.8,���k��,5.0
2024/02/03,01:40,3.8,��,4.6
2024/02/03,01:50,3.8,��,3.8
2024/02/03,02:00,3.7,�쐼,4.1
2024/02/03,02:10,3.7,�쐼,4.3
2024/02/03,02:20,3.6,�쐼,3.9
2024/02/03,02:30,3.8,���쐼,2.8
2024/02/03,02:40,3.9,���쐼,2.6
2024/02/03,02:50,3.6,���쐼,3.1
2024/02/03,03:00,3.8,���쐼,2.9
2024/02/03,03:10,3.7,�쐼,3.4
2024/02/03,03:20,3.8,�쐼,3.2
2024/02/03,03:30,3.7,�쐼,3.8
2024/02/03,03:40,3.8,�쐼,2.9
2024/02/03,03:50,3.7,�쐼,2.6
2024/02/03,04:00,3.7,�쐼,3.4
2024/02/03,04:10,3.7,�쐼,4.0
2024/02/03,04:20,3.6,���쐼,4.2
2024/02/03,04:30,3.8,�쐼,3.3
2024/02/03,04:40,3.7,���쐼,2.6
2024/02/03,04:50,3.7,���쐼,1.7
2024/02/03,05:00,3.7,��,2.0
2024/02/03,05:10,3.8,��,1.2
2024/02/03,05:20,4.0,���쐼,1.5
2024/02/03,05:30,3.8,�쐼,1.5
2024/02/03,05:40,3.7,��,2.9
2024/02/03,05:50,3.9,���쐼,2.5
2024/02/03,06:00,3.8,���쐼,3.4
2024/02/03,06:10,3.9,���쐼,3.5
2024/02/03,06:20,3.6,���쐼,3.5
2024/02/03,06:30,3.7,���쐼,4.1
2024/02/03,06:40,3.9,���쐼,4.3
2024/02/03,06:50,3.8,���쐼,4.1
2024/02/03,07:00,3.8,���쐼,4.2
2024/02/03,07:10,3.7,�쐼,3.9
2024/02/03,07:20,3.9,�쐼,4.1
2024/02/03,07:30,3.7,�쐼,3.4
2024/02/03,07:40,3.9,���쐼,3.2
2024/02/03,07:50,3.7,��,3.3
2024/02/03,08:00,3.7,���쐼,2.3
2024/02/03,08:10,3.9,��,3.1
2024/02/03,08:20,3.8,���쐼,2.8
2024/02/03,08:30,3.7,���쐼,2.5
2024/02/03,08:40,3.9,���쐼,2.5
2024/02/03,08:50,3.9,���쐼,2.5
2024/02/03,09:00,3.7,��,3.7
2024/02/03,09:10,3.7,��,5.6
2024/02/03,09:20,3.5,���k��,5.2
2024/02/03,09:30,3.6,���k��,5.6
2024/02/03,09:40,3.9,��,5.4
2024/02/03,09:50,3.7,���쐼,4.3
2024/02/03,10:00,3.8,���k��,3.0
2024/02/03,10:10,3.7,���k��,3.7
2024/02/03,10:20,3.8,�k��,3.5
2024/02/03,10:30,3.7,�k��,2.8
2024/02/03,10:40,3.6,�k��,2.0
2024/02/03,10:50,3.7,��,2.8
2024/02/03,11:00,3.7,���k��,2.0
2024/02/03,11:10,3.6,�k��,1.8
2024/02/03,11:20,3.8,���k��,3.6
2024/02/03,11:30,3.9,�k�k��,2.6
2024/02/03,11:40,3.8,�k�k��,4.8
2024/02/03,11:50,3.8,�k�k��,5.3
2024/02/03,12:00,3.8,�k�k��,3.5
2024/02/03,12:10,3.8,�k�k��,4.0
2024/02/03,12:20,3.9,�k��,3.3
2024/02/03,12:30,3.7,���k��,2.6
2024/02/03,12:40,3.8,��,3.8
2024/02/03,12:50,3.7,�k��,2.9
2024/02/03,13:00,3.8,�k��,3.3
2024/02/03,13:10,3.6,�k�k��,4.7
2024/02/03,13:20,3.8,�k�k��,3.9
2024/02/03,13:30,3.8,�k��,4.0
2024/02/03,13:40,3.7,�k��,4.7
2024/02/03,13:50,3.9,�k��,5.0
2024/02/03,14:00,3.9,�k�k��,4.0
2024/02/03,14:10,3.7,�k��,4.0
2024/02/03,14:20,3.7,���k��,4.0
2024/02/03,14:30,3.7,���k��,2.6
2024/02/03,14:40,3.8,�k��,2.2
2024/02/03,14:50,3.7,�k�k��,3.5
2024/02/03,15:00,3.8,�k��,3.5
2024/02/03,15:10,4.0,���k��,2.0
2024/02/03,15:20,3.7,��,3.9
2024/02/03,15:30,3.9,�k��,2.6
2024/02/03,15:40,3.8,��,2.8
2024/02/03,15:50,3.7,��,2.0
2024/02/03,16:00,3.9,�k��,3.3
2024/02/03,16:10,3.8,�k�k��,3.9
2024/02/03,16:20,3.8,��,3.2
2024/02/03,16:30,3.6,��,4.9
2024/02/03,16:40,3.8,��,4.0
2024/02/03,16:50,3.9,��,4.6
2024/02/03,17:00,3.7,��,5.0
2024/02/03,17:10,3.8,��,5.1
2024/02/03,17:20,3.8,���쐼,3.9
2024/02/03,17:30,3.8,��,5.5
2024/02/03,17:40,3.8,��,5.1
2024/02/03,17:50,3.7,��,4.6
2024/02/03,18:00,3.8,��,3.2
2024/02/03,18:10,3.5,��,4.2
2024/02/03,18:20,3.8,��,4.7
2024/02/03,18:30,3.8,��,5.1
2024/02/03,18:40,3.7,��,4.4
2024/02/03,18:50,3.9,��,4.3
2024/02/03,19:00,3.6,��,4.0
2024/02/03,19:10,3.9,��,2.6
2024/02/03,19:20,3.8,���k��,1.1
2024/02/03,19:30,3.7,���쐼,2.5
2024/02/03,19:40,3.6,�k��,2.0
2024/02/03,19:50,3.6,���k��,3.1
2024/02/03,20:00,3.7,�k��,2.6
2024/02/03,20:10,3.9,���k��,3.7
2024/02/03,20:20,4.1,�k��,3.4
2024/02/03,20:30,3.6,�k��,2.9
2024/02/03,20:40,3.8,�k��,2.6
2024/02/03,20:50,3.6,�k��,4.4
2024/02/03,21:00,3.8,�k��,5.0
2024/02/03,21:10,3.9,�k��,4.4
2024/02/03,21:20,3.6,�k��,3.9
2024/02/03,21:30,3.8,�k��,4.1
2024/02/03,21:40,3.6,�k��,3.5
2024/02/03,21:50,3.7,�k�k��,3.4
2024/02/03,22:00,3.8,�k�k��,4.5
2024/02/03,22:10,3.8,�k�k��,4.6
2024/02/03,22:20,3.8,�k�k��,4.3
2024/02/03,22:30,3.7,�k,4.1
2024/02/03,22:40,3.8,�k�k��,3.7
2024/02/03,22:50,3.8,�k�k��,4.3
2024/02/03,23:00,3.8,�k�k��,4.2
2024/02/03,23:10,3.9,�k�k��,4.1
2024/02/03,23:20,3.7,�k�k��,3.1
2024/02/03,23:30,3.9,�k�k��,2.6
2024/02/03,23:40,3.7,�k�k��,2.8
2024/02/03,23:50,3.7,�k�k��,3.2
